Location: Chicago
(41.8500°N, 87.6500°W)
Time: 23:14:29
(UTC-05:00)

ISS - Visible Passes

Search period start: 24 October 2014 00:00
Search period end: 02 November 2014 23:00
Orbit: 412 x 416 km, 51.6° (Epoch: 24 October)

Date Brightness Start Highest point End Pass type
(mag) Time Alt. Az. Time Alt. Az. Time Alt. Az.
24 Oct -2.7 18:38:10 10° NW 18:41:23 41° NNE 18:44:04 13° E visible
24 Oct -0.8 20:15:07 10° WNW 20:16:57 22° WSW 20:16:57 22° WSW visible
25 Oct -2.4 19:25:39 10° WNW 19:28:52 45° SW 19:30:14 28° SSE visible
26 Oct -3.2 18:36:21 10° WNW 18:39:42 83° SW 18:43:01 10° SE visible
27 Oct -0.5 19:24:32 10° W 19:26:48 17° SW 19:29:03 10° S visible
28 Oct -1.3 18:34:42 10° WNW 18:37:39 30° SW 18:40:36 10° SSE visible
30 Oct 0.1 18:34:08 10° WSW 18:35:15 11° SW 18:36:21 10° SSW visible
